User: anonymous   Login
Location: Tierz
(42.1336°N, 0.3549°W)
Time: 13:09:51
(UTC+00:00)
Language:

Meteor 2-21 Rocket - Orbit

View from above orbital plane
View from above orbital plane
View from above satellite
View from above satellite

Ground track
Ground track

The orbit data is extracted from the following two-line orbital elements,

1 22784U 93055C   21016.77544014  .00000029  00000-0  12455-4 0  9999
2 22784  82.5492  68.0536 0022200  10.7018 128.2803 13.83439876382308
Epoch (UTC): 16 January 2021 18:36:38
Eccentricity: 0.0022200
inclination: 82.5492°
perigee height: 935 km
apogee height: 968 km
right ascension of ascending node: 68.0536°
argument of perigee: 10.7018°
revolutions per day: 13.83439876
mean anomaly at epoch: 128.2803°
orbit number at epoch: 38230

The dashed part of the orbit path shows where the satellite is in the earth's shadow,  

DLR